Content
SEND FEEDBACK

Daily
Averages
Monthly
Summary
Canada

VANCOUVER, BRITISH COLUMBIA


Home > North America > Canada > British Columbia
Elevation: 7 feet     Latitude: 49 11N     Longitude: 123 10W

WEATHER
 
SELECT A DAY
Number of Records: 252,212;   Date Range: 5/15/97 - 9/29/14
 
SHARE

PRINT THIS DATA

[ ← Previous Day ]
WEATHER ALMANAC - JUNE 14, 2013
[ Next Day → ]
[ °C ]   °F
Weather ElementAverageHighLow
Temperature56.5 °F64.4 °F (4:55 pm)50 °F (11:15 pm)
Dewpoint48.6 °F50 °F (1:15 am)46.4 °F (7:35 am)
Humidity75.7 %94 % (11:15 pm)56 % (4:55 pm)
Barometer30.16 in30.21 in (12:35 pm)30.08 in (11:35 pm)
Wind Speed7.1 mph13.8 mph (6:55 am)
Wind Gust19.6 mph (12:15 pm)
Weather ElementAverage
Visibility9.9 mi
Wind DirectionSSE (159.4 °)

Weather ElementTotal
Precipitation---
Heating Degree Days7.8 (Base 65)
Growing Degree Days7.2 (Base 50)
Averaged from 71 records on June 14, 2013
WEATHER CONDITIONS BREAKOUT
WIND DIRECTION BREAKOUT
WEATHER BY HOUR - JUNE 14, 2013
[ °C ]   °F
Local TimeTemperatureDewpointHumidityBarometerVisibilityWind DirectionWind SpeedGust SpeedPrecipitationEventsConditions
12:35 AM53.6 °F48.2 °F82 %30.17 in10.0 miSouth (180°)8.1 mphRainLight Rain
12:55 AM53.6 °F48.2 °F82 %30.17 in10.0 miSouth (190°)10.4 mphClear
1:15 AM53.6 °F50.0 °F88 %30.17 in10.0 miSouth (190°)8.1 mphRainLight Rain
1:35 AM53.6 °F48.2 °F82 %30.17 in10.0 miSouth (190°)8.1 mphScattered Clouds
1:55 AM53.6 °F48.2 °F82 %30.17 in10.0 miSouth (190°)8.1 mphMostly Cloudy
2:15 AM53.6 °F48.2 °F82 %30.17 in10.0 miSouth (190°)6.9 mphScattered Clouds
2:35 AM53.6 °F48.2 °F82 %30.17 in10.0 miSouth (180°)8.1 mphScattered Clouds
2:55 AM53.6 °F48.2 °F82 %30.17 in10.0 miSSW (200°)10.4 mphScattered Clouds
3:15 AM53.6 °F48.2 °F82 %30.17 in10.0 miSSW (200°)12.7 mphPartly Cloudy
3:35 AM53.6 °F48.2 °F82 %30.17 in10.0 miSouth (190°)9.2 mphScattered Clouds
3:55 AM53.6 °F48.2 °F82 %30.17 in9.0 miSouth (190°)9.2 mphRainLight Rain
4:15 AM53.6 °F48.2 °F82 %30.17 in10.0 miSouth (190°)11.5 mphScattered Clouds
4:35 AM53.6 °F48.2 °F82 %30.17 in10.0 miSouth (190°)8.1 mphPartly Cloudy
4:55 AM51.8 °F48.2 °F88 %30.17 in10.0 miSouth (170°)5.8 mphMostly Cloudy
5:15 AM51.8 °F48.2 °F88 %30.18 in10.0 miSouth (190°)12.7 mphPartly Cloudy
5:35 AM51.8 °F48.2 °F88 %30.18 in9.0 miSouth (170°)8.1 mphPartly Cloudy
5:55 AM51.8 °F48.2 °F88 %30.18 in10.0 miSouth (190°)12.7 mphMostly Cloudy
6:15 AM53.6 °F48.2 °F82 %30.19 in9.0 miSouth (190°)10.4 mph16.1 mphMostly Cloudy
6:35 AM53.6 °F48.2 °F82 %30.19 in10.0 miSouth (190°)9.2 mphMostly Cloudy
6:55 AM53.6 °F48.2 °F82 %30.19 in10.0 miSSW (200°)13.8 mph17.3 mphMostly Cloudy
7:15 AM55.4 °F48.2 °F77 %30.19 in10.0 miSSW (210°)12.7 mph17.3 mphScattered Clouds
7:35 AM55.4 °F46.4 °F72 %30.19 in10.0 miSouth (190°)12.7 mph17.3 mphScattered Clouds
7:55 AM55.4 °F46.4 °F72 %30.19 in10.0 miSouth (190°)11.5 mphPartly Cloudy
8:15 AM57.2 °F46.4 °F67 %30.19 in10.0 miSouth (190°)12.7 mph17.3 mphClear
8:35 AM55.4 °F48.2 °F77 %30.19 in10.0 miSouth (170°)5.8 mph17.3 mphPartly Cloudy
8:55 AM57.2 °F48.2 °F72 %30.19 in10.0 miSouth (180°)9.2 mphMostly Cloudy
9:15 AM55.4 °F48.2 °F77 %30.20 in10.0 miSouth (180°)8.1 mph18.4 mphOvercast
9:35 AM57.2 °F48.2 °F72 %30.20 in10.0 miSouth (190°)9.2 mphOvercast
9:55 AM57.2 °F48.2 °F72 %30.20 in10.0 miSouth (180°)11.5 mph17.3 mphOvercast
10:15 AM59.0 °F50.0 °F72 %30.20 in10.0 miSouth (170°)9.2 mphMostly Cloudy
10:35 AM55.4 °F50.0 °F82 %30.20 in10.0 miSouth (180°)5.8 mphMostly Cloudy
10:55 AM59.0 °F50.0 °F72 %30.20 in10.0 miSouth (170°)8.1 mphScattered Clouds
11:15 AM59.0 °F50.0 °F72 %30.20 in10.0 miSSE (160°)8.1 mphPartly Cloudy
11:35 AM59.0 °F48.2 °F67 %30.20 in10.0 miSouth (170°)6.9 mphPartly Cloudy
11:55 AM59.0 °F48.2 °F67 %30.20 in10.0 miSouth (170°)5.8 mph16.1 mphScattered Clouds
12:15 PM59.0 °F50.0 °F72 %30.20 in10.0 miSouth (190°)12.7 mph19.6 mphPartly Cloudy
12:35 PM60.8 °F50.0 °F68 %30.21 in10.0 miSouth (170°)6.9 mphPartly Cloudy
12:55 PM59.0 °F50.0 °F72 %30.20 in10.0 miSouth (190°)12.7 mphPartly Cloudy
1:15 PM59.0 °F50.0 °F72 %30.20 in10.0 miSouth (190°)10.4 mphMostly Cloudy
1:35 PM59.0 °F50.0 °F72 %30.20 in9.0 miSSW (200°)12.7 mphPartly Cloudy
1:55 PM59.0 °F50.0 °F72 %30.20 in10.0 miSouth (190°)9.2 mphClear
2:15 PM59.0 °F50.0 °F72 %30.20 in10.0 miSouth (190°)10.4 mphMostly Cloudy
2:35 PM59.0 °F50.0 °F72 %30.20 in10.0 miSouth (190°)8.1 mphOvercast
2:55 PM59.0 °F50.0 °F72 %30.19 in10.0 miSSW (200°)8.1 mphMostly Cloudy
3:15 PM60.8 °F50.0 °F68 %30.19 in10.0 miSouth (190°)10.4 mphMostly Cloudy
3:35 PM62.6 °F50.0 °F63 %30.18 in10.0 miSSW (200°)8.1 mphClear
3:55 PM62.6 °F50.0 °F63 %30.18 in10.0 miSouth (180°)6.9 mphClear
4:15 PM62.6 °F48.2 °F59 %30.17 in10.0 miSouth (190°)10.4 mphClear
4:35 PM62.6 °F48.2 °F59 %30.17 in10.0 miSSW (200°)9.2 mphClear
4:55 PM64.4 °F48.2 °F56 %30.16 in9.0 miSSW (200°)9.2 mphClear
5:15 PM64.4 °F48.2 °F56 %30.15 in10.0 miSouth (170°)4.6 mphClear
5:35 PM64.4 °F48.2 °F56 %30.14 in10.0 miSSW (200°)6.9 mphClear
5:55 PM64.4 °F48.2 °F56 %30.14 in10.0 miWest (270°)3.5 mphClear
6:15 PM59.0 °F50.0 °F72 %30.13 in10.0 miNNW (330°)3.5 mphClear
6:35 PM59.0 °F50.0 °F72 %30.13 in10.0 miNNW (340°)4.6 mphClear
6:55 PM59.0 °F48.2 °F67 %30.12 in10.0 miNNW (340°)5.8 mphClear
7:15 PM57.2 °F50.0 °F77 %30.12 in10.0 miNNW (330°)3.5 mphClear
7:35 PM57.2 °F48.2 °F72 %30.12 in10.0 miCalmClear
7:55 PM57.2 °F48.2 °F72 %30.11 in10.0 miCalmClear
8:15 PM55.4 °F48.2 °F77 %30.11 in10.0 miCalmRainLight Rain
8:35 PM57.2 °F48.2 °F72 %30.11 in10.0 miCalmClear
8:55 PM57.2 °F48.2 °F72 %30.10 in10.0 miCalmClear
9:15 PM55.4 °F48.2 °F77 %30.10 in9.0 miCalmClear
9:35 PM53.6 °F48.2 °F82 %30.10 in10.0 miCalmClear
9:55 PM53.6 °F50.0 °F88 %30.10 in10.0 miCalmClear
10:15 PM53.6 °F48.2 °F82 %30.09 in10.0 miCalmClear
10:35 PM51.8 °F48.2 °F88 %30.09 in10.0 miCalmClear
10:55 PM51.8 °F48.2 °F88 %30.09 in10.0 miCalmClear
11:15 PM50.0 °F48.2 °F94 %30.09 in10.0 miCalmClear
11:35 PM50.0 °F48.2 °F94 %30.08 in10.0 miCalmClear
11:55 PM50.0 °F46.4 °F87 %30.08 in10.0 miCalmClear
Hourly data recorded from CZBB, located miles away from Vancouver, British Columbia







STORIES FROM OUR PARTNERS